Regional Weather Roundup
Issued by NWS

Home | Current Version | Previous Version | Graphics & Text | Print | Product List | Glossary Off
Versions: 1 2 3 4 5 6 7 8 9 10 11 12 13 14 15 16 17 18 19 20 21 22 23 24 25 26 27 28 29 30 31 32 33 34 35 36 37 38 39 40 41 42 43 44 45 46 47 48 49 50

000
ASUS43 KDTX 290010
RWRMI
MICHIGAN HOURLY REGIONAL WEATHER ROUNDUP
NATIONAL WEATHER SERVICE DETROIT/PONTIAC MI
800 PM EDT SUN AUG 28 2016

NOTE: "FAIR" INDICATES FEW OR NO CLOUDS BELOW 12,000 FEET WITH NO
SIGNIFICANT WEATHER AND/OR OBSTRUCTION TO VISIBILITY.

MIZ047>049-052>055-059>063-066>070-074>076-081>083-290100-
SOUTHEAST LOWER MICHIGAN

CITY           SKY/WX    TMP DP  RH WIND       PRES   REMARKS
ADRIAN         CLOUDY    77  74  90 CALM      30.16F
6HR MIN TEMP:  73; 6HR MAX TEMP:  78; 6HR PCP: TRACE;

ALMA           CLEAR     78  70  77 CALM      30.19S
ANN ARBOR      CLOUDY    79  76  90 MISG      30.16F
BAD AXE        CLEAR     72  66  83 CALM      30.19S
CARO           CLEAR     72  68  87 CALM      30.18S
DETROIT CITY   PTCLDY    81  74  79 VRB3      30.15S
6HR MIN TEMP:  81; 6HR MAX TEMP:  86;

DETROIT        MOCLDY    81  74  79 SW7       30.16S
6HR MIN TEMP:  78; 6HR MAX TEMP:  84;

FLINT          CLEAR     79  65  62 NW8       30.18S
6HR MIN TEMP:  79; 6HR MAX TEMP:  86;

GROSSE ILE     MOCLDY    76  73  90 CALM      30.15S
6HR MIN TEMP:  72; 6HR MAX TEMP:  78; 6HR PCP:  0.22;

HILLSDALE      MOCLDY    75  71  86 CALM      30.18R
6HR MIN TEMP:  51; 6HR MAX TEMP:  84;

HOWELL         CLEAR     77  68  72 CALM      30.18S
6HR MIN TEMP:  77; 6HR MAX TEMP:  85;


CITY           SKY/WX    TMP DP  RH WIND       PRES   REMARKS
JACKSON        MOCLDY    79  72  79 N6        30.17S
6HR MIN TEMP:  79; 6HR MAX TEMP:  85;

LAMBERTVILLE   CLOUDY    75  73  91 CALM      30.15F
6HR MIN TEMP:  71; 6HR MAX TEMP:  85;

LANSING        CLEAR     78  66  66 CALM      30.19S
6HR MIN TEMP:  78; 6HR MAX TEMP:  84;

LAPEER         FAIR      75  67  76 N5        30.19R
6HR MIN TEMP:  75; 6HR MAX TEMP:  84;

MASON          CLEAR     77  68  73 N3        30.18S
MONROE         CLOUDY    74  72  93 CALM      30.14F
6HR MIN TEMP:  72; 6HR MAX TEMP:  78; 6HR PCP:  0.06;

MT. CLEMENS    MOCLDY    78  73  86 CALM      30.13S
6HR MIN TEMP:  78; 6HR MAX TEMP:  86;

PONTIAC        CLOUDY    79  68  69 N7        30.17S
6HR MIN TEMP:  79; 6HR MAX TEMP:  85;

PORT HURON     CLEAR     73  70  88 N7        30.17R
TRI CITIES     CLEAR     77  68  73 SW5       30.19R
6HR MIN TEMP:  76; 6HR MAX TEMP:  81;

MIDLAND        FAIR      74  68  81 CALM      30.17S
6HR MIN TEMP:  74; 6HR MAX TEMP:  81;

TROY           CLEAR     83  65  54 NW3       30.17F
SAGINAW HB     CLEAR     73  64  73 NW3       30.18R
$$
MIZ043>046-050>051-056>058-064>065-071>073-077>080-290100-
SOUTHWEST LOWER MICHIGAN

CITY           SKY/WX    TMP DP  RH WIND       PRES   REMARKS
BATTLE CREEK   PTCLDY    76  71  85 N7        30.18S
6HR MIN TEMP:  76; 6HR MAX TEMP:  83;

BENTON HARBOR  PTCLDY    75  67  76 CALM      30.18R
6HR MIN TEMP:  74; 6HR MAX TEMP:  82;

BIG RAPIDS     CLEAR     76  68  77 CALM      30.19S
6HR MIN TEMP:  76; 6HR MAX TEMP:  83;

COLDWATER      PTCLDY    76  74  96 CALM      30.18S
6HR MIN TEMP:  76; 6HR MAX TEMP:  86;

FREMONT        FAIR      74  65  73 W5        30.19S
6HR MIN TEMP:  74; 6HR MAX TEMP:  82;

HOLLAND        CLEAR     75  65  70 NW3       30.19S
6HR MIN TEMP:  75; 6HR MAX TEMP:  83;

GRAND RAPIDS   PTCLDY    78  66  66 N5        30.18S
6HR MIN TEMP:  78; 6HR MAX TEMP:  85;

IONIA          FAIR      75  65  71 CALM      30.17S
6HR MIN TEMP:  75; 6HR MAX TEMP:  82;

KALAMAZOO      PTCLDY    80  69  69 N5        30.17S
6HR MIN TEMP:  80; 6HR MAX TEMP:  86;

LUDINGTON      MOCLDY    68  64  86 CALM      30.19S
6HR MIN TEMP:  68; 6HR MAX TEMP:  75;

MARSHALL       PTCLDY    81  72  74 CALM      30.17R
MOUNT PLEASANT CLEAR     77  68  73 CALM      30.18S
6HR MIN TEMP:  77; 6HR MAX TEMP:  83;

MUSKEGON       PTCLDY    74  64  71 NW5       30.19S
6HR MIN TEMP:  74; 6HR MAX TEMP:  80;

SOUTH HAVEN    PTCLDY    75  67  76 N3        30.19R
$$
MIZ016>042-290100-
NORTHERN LOWER MICHIGAN

CITY           SKY/WX    TMP DP  RH WIND       PRES   REMARKS
ALPENA         CLEAR     75  63  66 CALM      30.19R
6HR MIN TEMP:  75; 6HR MAX TEMP:  83;

BEAVER ISLAND  CLEAR     69  64  83 SW3       30.21S
6HR MIN TEMP:  69; 6HR MAX TEMP:  76;

BELLAIRE       CLEAR     70  62  76 CALM      30.21S
6HR MIN TEMP:  70; 6HR MAX TEMP:  77;

CADILLAC       CLEAR     74  62  67 N3        30.20S
CHARLEVOIX     CLEAR     71  62  73 W5        30.24S
6HR MIN TEMP:  71; 6HR MAX TEMP:  75;

FRANKFORT      CLEAR     71  64  76 CALM      30.20S
GAYLORD        CLEAR     72  58  61 NW6       30.23R
6HR MIN TEMP:  72; 6HR MAX TEMP:  78;

GRAYLING       CLEAR     73  62  68 NW5       30.22S
HARBOR SPRINGS CLEAR     70  62  78 W6        30.21S
HOUGHTON LAKE  CLEAR     75  64  68 CALM      30.21R
6HR MIN TEMP:  75; 6HR MAX TEMP:  80;

MANISTEE       CLOUDY    71  64  78 NW6       30.20R
OSCODA         PTCLDY    69  65  89 NE6       30.18S
6HR MIN TEMP:  69; 6HR MAX TEMP:  81;

PELLSTON       CLEAR     70  62  76 W3        30.21S
6HR MIN TEMP:  70; 6HR MAX TEMP:  77;

ROGERS CITY    CLEAR     72  60  67 W5        30.20S
TRAVERSE CITY  PTCLDY    73  64  73 NE6       30.19S
6HR MIN TEMP:  73; 6HR MAX TEMP:  79;

$$
MIZ007>008-015-290100-
EASTERN UPPER MICHIGAN

CITY           SKY/WX    TMP DP  RH WIND       PRES   REMARKS
KINROSS        CLEAR     65  60  84 N9        30.22R
6HR MIN TEMP:  65; 6HR MAX TEMP:  73;

MACKINAC ISLAN MOCLDY    69  64  83 NW5       30.20S
6HR MIN TEMP:  69; 6HR MAX TEMP:  73;

NEWBERRY       CLEAR     67  60  78 N3        30.21S
6HR MIN TEMP:  67; 6HR MAX TEMP:  75;

S. S. MARIE    CLEAR     65  59  81 NW7       30.21R
6HR MIN TEMP:  65; 6HR MAX TEMP:  74;

$$
MIZ004>006-011>014-085-290100-
CENTRAL UPPER MICHIGAN

CITY           SKY/WX    TMP DP  RH WIND       PRES   REMARKS
MANISTIQUE     CLEAR     69  64  86 SW6       30.20S
6HR MIN TEMP:  69; 6HR MAX TEMP:  78;

MENOMINEE      CLEAR    N/A N/A N/A S3        30.19F
SAWYER-GWINN   CLEAR     66  57  72 E7        30.23R
$$
MIZ001>003-009>011-084-290100-
WESTERN UPPER MICHIGAN

CITY           SKY/WX    TMP DP  RH WIND       PRES   REMARKS
IRON MOUNTAIN  PTCLDY    76  60  57 S5        30.18S
6HR MIN TEMP:  76; 6HR MAX TEMP:  81;

HOUGHTON       CLEAR     69  59  70 E7        30.20R
6HR MIN TEMP:  69; 6HR MAX TEMP:  76;

IRONWOOD       CLEAR     72  64  76 NE3       30.18R
6HR MIN TEMP:  71; 6HR MAX TEMP:  78;

$$

ABBREVIATIONS USED IN REMARKS
   TC - TEMPERATURE IN CELSIUS
  WCI - WIND CHILL INDEX
   HX - HEAT INDEX
  VSB - VISIBILITY




USA.gov is the U.S. government's official web portal to all federal, state and local government web resources and services.